| time (UTC) | temp C | wind direction | speed KPH | gust KPH | rain 1hr cm | rain 24hr cm | rain mn cm | humidity % | barometer mb |
| 20260507125136 | 7 | 61 | 0.0 | 0.0 | 0.00 | 0.00 | 0.00 | 87 | 1019.0 |
| 20260507124631 | 7 | 69 | 1.6 | 1.6 | 0.00 | 0.00 | 0.00 | 88 | 1018.9 |
| 20260507124130 | 7 | 63 | 0.0 | 0.0 | 0.00 | 0.00 | 0.00 | 90 | 1019.2 |
| 20260507123628 | 6 | 130 | 0.0 | 0.0 | 0.00 | 0.00 | 0.00 | 91 | 1019.0 |
| 20260507123124 | 6 | 109 | 1.6 | 3.2 | 0.00 | 0.00 | 0.00 | 92 | 1019.0 |
| 20260507122619 | 6 | 137 | 0.0 | 0.0 | 0.00 | 0.00 | 0.00 | 93 | 1019.0 |
| 20260507122115 | 6 | 87 | 0.0 | 0.0 | 0.00 | 0.00 | 0.00 | 93 | 1018.9 |
| 20260507121612 | 6 | 85 | 1.6 | 1.6 | 0.00 | 0.00 | 0.00 | 93 | 1018.7 |
| 20260507121108 | 6 | 81 | 0.0 | 0.0 | 0.00 | 0.00 | 0.00 | 94 | 1018.8 |
| 20260507120604 | 6 | 93 | 0.0 | 0.0 | 0.00 | 0.00 | 0.00 | 94 | 1018.6 |
| 20260507120100 | 6 | 62 | 0.0 | 0.0 | 0.00 | 0.00 | 0.00 | 94 | 1018.8 |
| 20260507115557 | 6 | 71 | 0.0 | 0.0 | 0.00 | 0.00 | 0.00 | 94 | 1018.5 |
| 20260507115053 | 5 | 74 | 0.0 | 0.0 | 0.00 | 0.00 | 0.00 | 94 | 1018.7 |
| 20260507114549 | 5 | 76 | 0.0 | 0.0 | 0.00 | 0.00 | 0.00 | 94 | 1018.5 |
| 20260507114046 | 5 | 66 | 0.0 | 0.0 | 0.00 | 0.00 | 0.00 | 93 | 1018.4 |
| 20260507113543 | 5 | 68 | 0.0 | 0.0 | 0.00 | 0.00 | 0.00 | 93 | 1018.6 |
| 20260507113040 | 5 | 68 | 0.0 | 0.0 | 0.00 | 0.00 | 0.00 | 93 | 1018.6 |
| 20260507112538 | 5 | 69 | 0.0 | 0.0 | 0.00 | 0.00 | 0.00 | 92 | 1018.4 |
| 20260507112035 | 5 | 72 | 0.0 | 0.0 | 0.00 | 0.00 | 0.00 | 92 | 1018.6 |
| 20260507111532 | 6 | 72 | 0.0 | 0.0 | 0.00 | 0.00 | 0.00 | 92 | 1018.3 |
| 20260507111028 | 6 | 78 | 0.0 | 0.0 | 0.00 | 0.00 | 0.00 | 92 | 1018.4 |
| 20260507110525 | 6 | 67 | 0.0 | 0.0 | 0.00 | 0.00 | 0.00 | 92 | 1018.3 |
| 20260507110021 | 6 | 67 | 0.0 | 0.0 | 0.00 | 0.00 | 0.00 | 92 | 1018.4 |
| 20260507105519 | 6 | 74 | 0.0 | 0.0 | 0.00 | 0.00 | 0.00 | 91 | 1018.4 |
| 20260507105014 | 6 | 74 | 0.0 | 0.0 | 0.00 | 0.00 | 0.00 | 91 | 1018.3 |
| 20260507104512 | 6 | 74 | 0.0 | 0.0 | 0.00 | 0.00 | 0.00 | 91 | 1018.4 |
| 20260507104008 | 6 | 74 | 0.0 | 0.0 | 0.00 | 0.00 | 0.00 | 91 | 1018.3 |
| 20260507103505 | 6 | 84 | 0.0 | 0.0 | 0.00 | 0.00 | 0.00 | 91 | 1018.3 |
| 20260507103001 | 6 | 70 | 0.0 | 0.0 | 0.00 | 0.00 | 0.00 | 91 | 1018.2 |
| 20260507102458 | 6 | 68 | 0.0 | 0.0 | 0.00 | 0.00 | 0.00 | 91 | 1018.1 |
| 20260507101954 | 6 | 57 | 0.0 | 0.0 | 0.00 | 0.00 | 0.00 | 91 | 1018.3 |
| 20260507101449 | 6 | 63 | 0.0 | 0.0 | 0.00 | 0.00 | 0.00 | 92 | 1018.5 |
| 20260507100946 | 6 | 48 | 0.0 | 0.0 | 0.00 | 0.00 | 0.00 | 92 | 1018.4 |
| 20260507100443 | 6 | 47 | 0.0 | 0.0 | 0.00 | 0.00 | 0.00 | 93 | 1018.4 |
| 20260507095942 | 6 | 68 | 0.0 | 0.0 | 0.00 | 0.00 | 0.00 | 93 | 1018.5 |
| 20260507095439 | 6 | 322 | 0.0 | 0.0 | 0.00 | 0.00 | 0.00 | 93 | 1018.3 |
| 20260507094936 | 6 | 21 | 0.0 | 0.0 | 0.00 | 0.00 | 0.00 | 93 | 1018.0 |
| 20260507094432 | 6 | 47 | 0.0 | 0.0 | 0.00 | 0.00 | 0.00 | 93 | 1018.1 |
| 20260507093929 | 6 | 43 | 0.0 | 0.0 | 0.00 | 0.00 | 0.00 | 93 | 1018.3 |
| 20260507093427 | 6 | 54 | 0.0 | 0.0 | 0.00 | 0.00 | 0.00 | 93 | 1017.7 |
| 20260507092925 | 6 | 57 | 0.0 | 0.0 | 0.00 | 0.00 | 0.00 | 93 | 1018.0 |
| 20260507092421 | 6 | 71 | 0.0 | 0.0 | 0.00 | 0.00 | 0.00 | 92 | 1018.2 |
| 20260507091918 | 6 | 71 | 0.0 | 0.0 | 0.00 | 0.00 | 0.00 | 92 | 1018.0 |
| 20260507091414 | 6 | 71 | 0.0 | 0.0 | 0.00 | 0.00 | 0.00 | 92 | 1018.0 |
| 20260507090910 | 6 | 71 | 0.0 | 0.0 | 0.00 | 0.00 | 0.00 | 91 | 1018.2 |
| 20260507090406 | 6 | 71 | 0.0 | 0.0 | 0.00 | 0.00 | 0.00 | 91 | 1018.3 |
| 20260507085903 | 6 | 71 | 0.0 | 0.0 | 0.00 | 0.00 | 0.00 | 90 | 1018.2 |
| 20260507085400 | 6 | 71 | 0.0 | 0.0 | 0.00 | 0.00 | 0.00 | 90 | 1018.2 |
| 20260507084857 | 6 | 71 | 0.0 | 0.0 | 0.00 | 0.00 | 0.00 | 89 | 1018.2 |
| 20260507084354 | 6 | 72 | 0.0 | 0.0 | 0.00 | 0.00 | 0.00 | 89 | 1018.3 |
| 20260507083851 | 6 | 72 | 0.0 | 0.0 | 0.00 | 0.00 | 0.00 | 88 | 1018.5 |
| 20260507083347 | 6 | 69 | 0.0 | 0.0 | 0.00 | 0.00 | 0.00 | 88 | 1018.4 |
| 20260507082844 | 7 | 48 | 0.0 | 0.0 | 0.00 | 0.00 | 0.00 | 89 | 1018.6 |
| 20260507082339 | 7 | 55 | 0.0 | 1.6 | 0.00 | 0.00 | 0.00 | 90 | 1018.4 |
| 20260507081837 | 6 | 48 | 0.0 | 0.0 | 0.00 | 0.00 | 0.00 | 90 | 1018.4 |
| 20260507081332 | 6 | 345 | 0.0 | 0.0 | 0.00 | 0.00 | 0.00 | 91 | 1018.3 |
| 20260507080830 | 6 | 42 | 0.0 | 0.0 | 0.00 | 0.00 | 0.00 | 92 | 1018.3 |
| 20260507080326 | 6 | 62 | 0.0 | 0.0 | 0.00 | 0.00 | 0.00 | 91 | 1018.2 |
| 20260507075821 | 6 | 62 | 0.0 | 0.0 | 0.00 | 0.00 | 0.00 | 91 | 1018.2 |
| 20260507075318 | 6 | 62 | 0.0 | 0.0 | 0.00 | 0.00 | 0.00 | 91 | 1018.1 |
| 20260507074814 | 6 | 57 | 0.0 | 0.0 | 0.00 | 0.00 | 0.00 | 90 | 1018.2 |
| 20260507074312 | 6 | 57 | 0.0 | 0.0 | 0.00 | 0.00 | 0.00 | 90 | 1018.2 |
| 20260507073809 | 6 | 69 | 0.0 | 0.0 | 0.00 | 0.00 | 0.00 | 90 | 1018.2 |
| 20260507073305 | 6 | 69 | 0.0 | 0.0 | 0.00 | 0.00 | 0.00 | 90 | 1018.4 |
| 20260507072803 | 6 | 58 | 0.0 | 0.0 | 0.00 | 0.00 | 0.00 | 90 | 1018.4 |
| 20260507072300 | 6 | 64 | 0.0 | 0.0 | 0.00 | 0.00 | 0.00 | 89 | 1018.2 |
| 20260507071757 | 7 | 64 | 0.0 | 0.0 | 0.00 | 0.00 | 0.00 | 89 | 1018.2 |
| 20260507071254 | 7 | 64 | 0.0 | 0.0 | 0.00 | 0.00 | 0.00 | 88 | 1018.2 |
| 20260507070751 | 7 | 64 | 0.0 | 0.0 | 0.00 | 0.00 | 0.00 | 89 | 1018.4 |
| 20260507070248 | 7 | 75 | 0.0 | 0.0 | 0.00 | 0.00 | 0.00 | 88 | 1018.6 |
| 20260507065744 | 7 | 71 | 0.0 | 0.0 | 0.00 | 0.00 | 0.00 | 88 | 1018.6 |
| 20260507065241 | 7 | 71 | 0.0 | 0.0 | 0.00 | 0.00 | 0.00 | 88 | 1018.6 |
| 20260507064738 | 7 | 71 | 0.0 | 0.0 | 0.00 | 0.00 | 0.00 | 88 | 1018.7 |
| 20260507064237 | 7 | 73 | 0.0 | 0.0 | 0.00 | 0.00 | 0.00 | 87 | 1018.7 |
| 20260507063734 | 7 | 60 | 0.0 | 0.0 | 0.00 | 0.00 | 0.00 | 87 | 1018.6 |
| 20260507063231 | 7 | 83 | 0.0 | 0.0 | 0.00 | 0.00 | 0.00 | 87 | 1019.0 |
| 20260507062728 | 7 | 70 | 0.0 | 0.0 | 0.00 | 0.00 | 0.00 | 86 | 1018.9 |
| 20260507062225 | 7 | 68 | 0.0 | 0.0 | 0.00 | 0.00 | 0.00 | 85 | 1018.9 |
| 20260507061723 | 7 | 67 | 0.0 | 0.0 | 0.00 | 0.00 | 0.00 | 85 | 1018.7 |
| 20260507061220 | 8 | 73 | 0.0 | 0.0 | 0.00 | 0.00 | 0.00 | 85 | 1018.6 |
| 20260507060718 | 8 | 75 | 0.0 | 0.0 | 0.00 | 0.00 | 0.00 | 84 | 1018.7 |
| 20260507060215 | 8 | 67 | 0.0 | 0.0 | 0.00 | 0.00 | 0.00 | 83 | 1018.4 |
| 20260507055711 | 8 | 36 | 0.0 | 0.0 | 0.00 | 0.00 | 0.00 | 82 | 1018.4 |
| 20260507055207 | 8 | 89 | 0.0 | 0.0 | 0.00 | 0.00 | 0.00 | 81 | 1018.3 |
| 20260507054703 | 8 | 74 | 0.0 | 0.0 | 0.00 | 0.00 | 0.00 | 80 | 1018.2 |
| 20260507054200 | 9 | 63 | 0.0 | 0.0 | 0.00 | 0.00 | 0.00 | 79 | 1018.3 |
| 20260507053658 | 9 | 63 | 0.0 | 0.0 | 0.00 | 0.00 | 0.00 | 78 | 1018.3 |
| 20260507053155 | 8 | 105 | 0.0 | 0.0 | 0.00 | 0.00 | 0.00 | 80 | 1018.3 |
| 20260507052654 | 8 | 58 | 0.0 | 0.0 | 0.00 | 0.00 | 0.00 | 80 | 1018.3 |
| 20260507052149 | 8 | 48 | 0.0 | 0.0 | 0.00 | 0.00 | 0.00 | 80 | 1018.3 |
| 20260507051648 | 8 | 54 | 0.0 | 0.0 | 0.00 | 0.00 | 0.00 | 79 | 1018.2 |
| 20260507051144 | 9 | 53 | 0.0 | 0.0 | 0.00 | 0.00 | 0.00 | 78 | 1018.2 |
| 20260507050641 | 9 | 48 | 0.0 | 0.0 | 0.00 | 0.00 | 0.00 | 77 | 1018.1 |
| 20260507050138 | 10 | 71 | 0.0 | 0.0 | 0.00 | 0.00 | 0.00 | 76 | 1018.1 |
| 20260507045635 | 10 | 78 | 0.0 | 0.0 | 0.00 | 0.00 | 0.00 | 76 | 1018.3 |
| 20260507045131 | 10 | 1 | 0.0 | 0.0 | 0.00 | 0.00 | 0.00 | 75 | 1018.2 |
| 20260507044628 | 10 | 59 | 0.0 | 0.0 | 0.00 | 0.00 | 0.00 | 73 | 1018.1 |
| 20260507044125 | 10 | 70 | 0.0 | 0.0 | 0.00 | 0.00 | 0.00 | 71 | 1018.1 |
| 20260507043621 | 10 | 70 | 0.0 | 0.0 | 0.00 | 0.00 | 0.00 | 70 | 1018.1 |
| 20260507043118 | 11 | 69 | 0.0 | 0.0 | 0.00 | 0.00 | 0.00 | 69 | 1018.1 |
| 20260507042614 | 11 | 72 | 0.0 | 0.0 | 0.00 | 0.00 | 0.00 | 67 | 1018.1 |
| 20260507042110 | 11 | 59 | 0.0 | 0.0 | 0.00 | 0.00 | 0.00 | 63 | 1017.8 |
| 20260507041607 | 12 | 56 | 0.0 | 0.0 | 0.00 | 0.00 | 0.00 | 61 | 1018.0 |
| 20260507041103 | 12 | 51 | 0.0 | 0.0 | 0.00 | 0.00 | 0.00 | 60 | 1018.0 |
| 20260507040600 | 12 | 33 | 0.0 | 0.0 | 0.00 | 0.00 | 0.00 | 60 | 1017.9 |
| 20260507040057 | 12 | 34 | 0.0 | 0.0 | 0.00 | 0.00 | 0.00 | 61 | 1018.0 |
| 20260507035553 | 12 | 48 | 0.0 | 0.0 | 0.00 | 0.00 | 0.00 | 59 | 1018.1 |
| 20260507035049 | 12 | 64 | 0.0 | 0.0 | 0.00 | 0.00 | 0.00 | 59 | 1018.1 |
| 20260507034546 | 12 | 28 | 0.0 | 1.6 | 0.00 | 0.00 | 0.00 | 60 | 1018.1 |
| 20260507034044 | 12 | 50 | 0.0 | 0.0 | 0.00 | 0.00 | 0.00 | 60 | 1017.9 |
| 20260507033541 | 12 | 51 | 0.0 | 1.6 | 0.00 | 0.00 | 0.00 | 59 | 1017.8 |
| 20260507033038 | 12 | 50 | 0.0 | 0.0 | 0.00 | 0.00 | 0.00 | 58 | 1017.9 |
| 20260507032535 | 12 | 39 | 0.0 | 1.6 | 0.00 | 0.00 | 0.00 | 57 | 1017.8 |
| 20260507032032 | 12 | 52 | 0.0 | 0.0 | 0.00 | 0.00 | 0.00 | 58 | 1017.7 |
| 20260507031528 | 12 | 53 | 0.0 | 1.6 | 0.00 | 0.00 | 0.00 | 58 | 1017.7 |
| 20260507031025 | 12 | 51 | 0.0 | 0.0 | 0.00 | 0.00 | 0.00 | 57 | 1017.6 |
| 20260507030522 | 13 | 57 | 0.0 | 0.0 | 0.00 | 0.00 | 0.00 | 57 | 1017.6 |
| 20260507030020 | 13 | 58 | 0.0 | 1.6 | 0.00 | 0.00 | 0.00 | 57 | 1017.8 |
| 20260507025516 | 13 | 46 | 0.0 | 0.0 | 0.00 | 0.00 | 0.00 | 56 | 1017.5 |
| 20260507025014 | 13 | 50 | 1.6 | 3.2 | 0.00 | 0.00 | 0.00 | 55 | 1017.3 |
| 20260507024512 | 13 | 17 | 1.6 | 1.6 | 0.00 | 0.00 | 0.00 | 55 | 1017.5 |
| 20260507024008 | 13 | 63 | 1.6 | 3.2 | 0.00 | 0.00 | 0.00 | 54 | 1017.4 |
| 20260507023504 | 13 | 50 | 0.0 | 1.6 | 0.00 | 0.00 | 0.00 | 55 | 1017.2 |
| 20260507023001 | 13 | 43 | 1.6 | 1.6 | 0.00 | 0.00 | 0.00 | 54 | 1017.2 |
| 20260507022458 | 13 | 54 | 1.6 | 1.6 | 0.00 | 0.00 | 0.00 | 53 | 1017.2 |
| 20260507021954 | 14 | 57 | 1.6 | 1.6 | 0.00 | 0.00 | 0.00 | 53 | 1017.2 |
| 20260507021449 | 14 | 43 | 3.2 | 4.8 | 0.00 | 0.00 | 0.00 | 53 | 1017.1 |
| 20260507020947 | 14 | 317 | 6.4 | 11.3 | 0.00 | 0.00 | 0.00 | 52 | 1017.1 |
| 20260507020444 | 14 | 319 | 4.8 | 4.8 | 0.00 | 0.00 | 0.00 | 52 | 1017.2 |
| 20260507015941 | 15 | 46 | 3.2 | 3.2 | 0.00 | 0.00 | 0.00 | 51 | 1017.0 |
| 20260507015439 | 15 | 324 | 8.0 | 14.5 | 0.00 | 0.00 | 0.00 | 51 | 1017.0 |
| 20260507014936 | 14 | 310 | 1.6 | 3.2 | 0.00 | 0.00 | 0.00 | 53 | 1016.9 |
| 20260507014433 | 14 | 53 | 0.0 | 0.0 | 0.00 | 0.00 | 0.00 | 53 | 1016.8 |
| 20260507013929 | 14 | 38 | 0.0 | 0.0 | 0.00 | 0.00 | 0.00 | 54 | 1016.7 |
| 20260507013426 | 15 | 43 | 0.0 | 1.6 | 0.00 | 0.00 | 0.00 | 53 | 1016.8 |
| 20260507012923 | 15 | 49 | 0.0 | 0.0 | 0.00 | 0.00 | 0.00 | 52 | 1016.5 |
| 20260507012419 | 15 | 49 | 1.6 | 1.6 | 0.00 | 0.00 | 0.00 | 52 | 1016.5 |
| 20260507011916 | 15 | 41 | 1.6 | 1.6 | 0.00 | 0.00 | 0.00 | 51 | 1016.3 |
| 20260507011414 | 15 | 47 | 0.0 | 1.6 | 0.00 | 0.00 | 0.00 | 50 | 1016.5 |
| 20260507010913 | 15 | 53 | 1.6 | 1.6 | 0.00 | 0.00 | 0.00 | 49 | 1016.3 |
| 20260507010409 | 16 | 28 | 1.6 | 3.2 | 0.00 | 0.00 | 0.00 | 48 | 1016.3 |
| 20260507005906 | 16 | 12 | 3.2 | 3.2 | 0.00 | 0.00 | 0.00 | 47 | 1016.2 |
| 20260507005403 | 16 | 9 | 3.2 | 3.2 | 0.00 | 0.00 | 0.00 | 48 | 1016.1 |
| 20260507004900 | 16 | 4 | 1.6 | 3.2 | 0.00 | 0.00 | 0.00 | 47 | 1016.1 |
| 20260507004356 | 16 | 39 | 0.0 | 1.6 | 0.00 | 0.00 | 0.00 | 48 | 1016.2 |
| 20260507003854 | 17 | 25 | 6.4 | 9.7 | 0.00 | 0.00 | 0.00 | 45 | 1015.8 |
| 20260507003349 | 17 | 1 | 3.2 | 3.2 | 0.00 | 0.00 | 0.00 | 46 | 1015.9 |
| 20260507002844 | 17 | 31 | 4.8 | 4.8 | 0.00 | 0.00 | 0.00 | 44 | 1016.0 |
| 20260507002341 | 17 | 53 | 1.6 | 1.6 | 0.00 | 0.00 | 0.00 | 45 | 1016.0 |
| 20260507001838 | 17 | 11 | 3.2 | 3.2 | 0.00 | 0.00 | 0.00 | 45 | 1015.9 |
| 20260507001335 | 17 | 27 | 3.2 | 3.2 | 0.00 | 0.00 | 0.00 | 45 | 1015.9 |
| 20260507000831 | 17 | 14 | 4.8 | 4.8 | 0.00 | 0.00 | 0.00 | 44 | 1015.9 |
| 20260507000328 | 17 | 47 | 1.6 | 1.6 | 0.00 | 0.00 | 0.00 | 45 | 1015.8 |
| 20260506235824 | 17 | 16 | 3.2 | 4.8 | 0.00 | 0.00 | 0.00 | 45 | 1015.7 |
| 20260506235320 | 18 | 37 | 3.2 | 4.8 | 0.00 | 0.00 | 0.00 | 42 | 1015.7 |
| 20260506234816 | 18 | 244 | 3.2 | 4.8 | 0.00 | 0.00 | 0.00 | 44 | 1015.8 |
| 20260506234314 | 18 | 47 | 1.6 | 3.2 | 0.00 | 0.00 | 0.00 | 44 | 1015.7 |
| 20260506233812 | 18 | 57 | 1.6 | 3.2 | 0.00 | 0.00 | 0.00 | 44 | 1015.7 |
| 20260506233307 | 18 | 29 | 4.8 | 6.4 | 0.00 | 0.00 | 0.00 | 44 | 1015.6 |
| 20260506232804 | 18 | 26 | 3.2 | 4.8 | 0.00 | 0.00 | 0.00 | 44 | 1015.7 |
| 20260506232259 | 18 | 45 | 1.6 | 1.6 | 0.00 | 0.00 | 0.00 | 45 | 1015.6 |
| 20260506231756 | 18 | 339 | 3.2 | 4.8 | 0.00 | 0.00 | 0.00 | 45 | 1015.6 |
| 20260506231255 | 18 | 27 | 4.8 | 12.9 | 0.00 | 0.00 | 0.00 | 43 | 1015.5 |
| 20260506230752 | 18 | 337 | 1.6 | 1.6 | 0.00 | 0.00 | 0.00 | 46 | 1015.3 |
| 20260506230249 | 18 | 39 | 1.6 | 1.6 | 0.00 | 0.00 | 0.00 | 45 | 1015.5 |
| 20260506225745 | 18 | 41 | 4.8 | 4.8 | 0.00 | 0.00 | 0.00 | 45 | 1015.4 |
| 20260506225242 | 18 | 33 | 3.2 | 4.8 | 0.00 | 0.00 | 0.00 | 47 | 1015.4 |
| 20260506224738 | 18 | 26 | 6.4 | 11.3 | 0.00 | 0.00 | 0.00 | 43 | 1015.4 |
| 20260506224236 | 18 | 209 | 3.2 | 3.2 | 0.00 | 0.00 | 0.00 | 45 | 1015.2 |
| 20260506223732 | 17 | 43 | 6.4 | 6.4 | 0.00 | 0.00 | 0.00 | 46 | 1015.2 |
| 20260506223227 | 17 | 32 | 4.8 | 9.7 | 0.00 | 0.00 | 0.00 | 47 | 1015.2 |
| 20260506222725 | 17 | 325 | 6.4 | 12.9 | 0.00 | 0.00 | 0.00 | 48 | 1015.2 |
| 20260506222220 | 17 | 43 | 3.2 | 3.2 | 0.00 | 0.00 | 0.00 | 46 | 1015.2 |
| 20260506221719 | 18 | 19 | 6.4 | 9.7 | 0.00 | 0.00 | 0.00 | 45 | 1015.1 |
| 20260506221216 | 19 | 13 | 3.2 | 4.8 | 0.00 | 0.00 | 0.00 | 44 | 1015.0 |
| 20260506220713 | 20 | 38 | 3.2 | 3.2 | 0.00 | 0.00 | 0.00 | 42 | 1014.9 |
| 20260506220208 | 19 | 18 | 4.8 | 6.4 | 0.00 | 0.00 | 0.00 | 44 | 1015.0 |
| 20260506215705 | 19 | 325 | 4.8 | 6.4 | 0.00 | 0.00 | 0.00 | 44 | 1015.0 |
| 20260506215200 | 19 | 54 | 4.8 | 9.7 | 0.00 | 0.00 | 0.00 | 45 | 1014.8 |
| 20260506214657 | 19 | 27 | 4.8 | 6.4 | 0.00 | 0.00 | 0.00 | 44 | 1014.8 |
| 20260506214155 | 20 | 336 | 9.7 | 11.3 | 0.00 | 0.00 | 0.00 | 43 | 1014.9 |
| 20260506213653 | 20 | 350 | 4.8 | 6.4 | 0.00 | 0.00 | 0.00 | 44 | 1015.0 |
| 20260506213150 | 19 | 322 | 6.4 | 9.7 | 0.00 | 0.00 | 0.00 | 47 | 1014.9 |
| 20260506212647 | 19 | 340 | 4.8 | 4.8 | 0.00 | 0.00 | 0.00 | 42 | 1014.9 |
| 20260506212141 | 18 | 355 | 4.8 | 4.8 | 0.00 | 0.00 | 0.00 | 45 | 1015.2 |
| 20260506211637 | 18 | 32 | 6.4 | 6.4 | 0.00 | 0.00 | 0.00 | 44 | 1014.9 |
| 20260506211135 | 18 | 40 | 3.2 | 4.8 | 0.00 | 0.00 | 0.00 | 45 | 1015.0 |
| 20260506210632 | 18 | 32 | 3.2 | 4.8 | 0.00 | 0.00 | 0.00 | 49 | 1015.1 |
| 20260506210129 | 17 | 39 | 3.2 | 4.8 | 0.00 | 0.00 | 0.00 | 50 | 1015.0 |
| 20260506205626 | 17 | 39 | 4.8 | 4.8 | 0.00 | 0.00 | 0.00 | 50 | 1015.1 |
| 20260506205125 | 17 | 31 | 4.8 | 4.8 | 0.00 | 0.00 | 0.00 | 49 | 1015.4 |
| 20260506204624 | 17 | 334 | 6.4 | 9.7 | 0.00 | 0.00 | 0.00 | 48 | 1015.5 |
| 20260506204120 | 17 | 45 | 1.6 | 3.2 | 0.00 | 0.00 | 0.00 | 49 | 1015.5 |
| 20260506203619 | 17 | 48 | 3.2 | 4.8 | 0.00 | 0.00 | 0.00 | 50 | 1015.5 |
| 20260506203115 | 17 | 267 | 6.4 | 6.4 | 0.00 | 0.00 | 0.00 | 49 | 1015.4 |
| 20260506202613 | 17 | 16 | 3.2 | 3.2 | 0.00 | 0.00 | 0.00 | 49 | 1015.4 |
| 20260506202109 | 17 | 34 | 1.6 | 1.6 | 0.00 | 0.00 | 0.00 | 50 | 1015.6 |
| 20260506201606 | 17 | 42 | 3.2 | 4.8 | 0.00 | 0.00 | 0.00 | 49 | 1015.8 |
| 20260506201103 | 17 | 27 | 6.4 | 6.4 | 0.00 | 0.00 | 0.00 | 49 | 1015.6 |
| 20260506200559 | 17 | 345 | 6.4 | 9.7 | 0.00 | 0.00 | 0.00 | 47 | 1015.9 |
| 20260506200056 | 18 | 36 | 4.8 | 6.4 | 0.00 | 0.00 | 0.00 | 47 | 1016.0 |
| 20260506195552 | 18 | 313 | 9.7 | 12.9 | 0.00 | 0.00 | 0.00 | 48 | 1016.1 |
| 20260506195049 | 18 | 17 | 8.0 | 12.9 | 0.00 | 0.00 | 0.00 | 50 | 1015.8 |
| 20260506194547 | 17 | 64 | 3.2 | 4.8 | 0.00 | 0.00 | 0.00 | 50 | 1015.7 |
| 20260506194043 | 17 | 13 | 6.4 | 9.7 | 0.00 | 0.00 | 0.00 | 50 | 1015.7 |
| 20260506193541 | 17 | 6 | 3.2 | 3.2 | 0.00 | 0.00 | 0.00 | 50 | 1015.7 |
| 20260506193038 | 18 | 29 | 3.2 | 4.8 | 0.00 | 0.00 | 0.00 | 49 | 1015.8 |
| 20260506192534 | 17 | 299 | 3.2 | 6.4 | 0.00 | 0.00 | 0.00 | 53 | 1015.8 |
| 20260506192030 | 17 | 354 | 4.8 | 6.4 | 0.00 | 0.00 | 0.00 | 48 | 1015.8 |
| 20260506191527 | 17 | 28 | 3.2 | 3.2 | 0.00 | 0.00 | 0.00 | 50 | 1015.9 |
| 20260506191023 | 17 | 34 | 3.2 | 4.8 | 0.00 | 0.00 | 0.00 | 51 | 1016.0 |
| 20260506190521 | 18 | 358 | 6.4 | 9.7 | 0.00 | 0.00 | 0.00 | 49 | 1016.0 |
| 20260506190019 | 17 | 218 | 3.2 | 4.8 | 0.00 | 0.00 | 0.00 | 52 | 1016.2 |
| 20260506185515 | 17 | 14 | 3.2 | 4.8 | 0.00 | 0.00 | 0.00 | 50 | 1016.2 |
| 20260506185011 | 17 | 6 | 1.6 | 3.2 | 0.00 | 0.00 | 0.00 | 51 | 1016.5 |
| 20260506184509 | 17 | 25 | 3.2 | 4.8 | 0.00 | 0.00 | 0.00 | 52 | 1016.6 |
| 20260506184006 | 17 | 48 | 1.6 | 1.6 | 0.00 | 0.00 | 0.00 | 51 | 1016.6 |
| 20260506183501 | 17 | 358 | 4.8 | 9.7 | 0.00 | 0.00 | 0.00 | 49 | 1016.6 |
| 20260506182958 | 18 | 324 | 6.4 | 9.7 | 0.00 | 0.00 | 0.00 | 47 | 1016.8 |
| 20260506182455 | 18 | 51 | 3.2 | 3.2 | 0.00 | 0.00 | 0.00 | 49 | 1016.7 |
| 20260506181953 | 18 | 73 | 3.2 | 6.4 | 0.00 | 0.00 | 0.00 | 49 | 1016.7 |
| 20260506181451 | 18 | 53 | 3.2 | 4.8 | 0.00 | 0.00 | 0.00 | 46 | 1016.8 |
| 20260506180947 | 17 | 27 | 6.4 | 9.7 | 0.00 | 0.00 | 0.00 | 51 | 1017.0 |
| 20260506180444 | 17 | 339 | 4.8 | 6.4 | 0.00 | 0.00 | 0.00 | 50 | 1017.0 |
| 20260506175940 | 17 | 78 | 3.2 | 4.8 | 0.00 | 0.00 | 0.00 | 50 | 1016.7 |
| 20260506175437 | 17 | 8 | 3.2 | 4.8 | 0.00 | 0.00 | 0.00 | 49 | 1016.9 |
| 20260506174933 | 17 | 27 | 1.6 | 1.6 | 0.00 | 0.00 | 0.00 | 53 | 1016.8 |
| 20260506174432 | 17 | 4 | 4.8 | 6.4 | 0.00 | 0.00 | 0.00 | 51 | 1016.8 |
| 20260506173928 | 17 | 41 | 8.0 | 9.7 | 0.00 | 0.00 | 0.00 | 50 | 1016.9 |
| 20260506173426 | 16 | 32 | 3.2 | 6.4 | 0.00 | 0.00 | 0.00 | 52 | 1017.0 |
| 20260506172923 | 17 | 8 | 6.4 | 11.3 | 0.00 | 0.00 | 0.00 | 50 | 1017.2 |
| 20260506172420 | 16 | 39 | 3.2 | 4.8 | 0.00 | 0.00 | 0.00 | 52 | 1017.5 |
| 20260506171916 | 16 | 25 | 4.8 | 4.8 | 0.00 | 0.00 | 0.00 | 51 | 1017.4 |
| 20260506171414 | 17 | 8 | 8.0 | 12.9 | 0.00 | 0.00 | 0.00 | 50 | 1017.6 |
| 20260506170912 | 16 | 18 | 1.6 | 3.2 | 0.00 | 0.00 | 0.00 | 52 | 1017.9 |
| 20260506170408 | 16 | 30 | 6.4 | 6.4 | 0.00 | 0.00 | 0.00 | 52 | 1017.9 |
| 20260506165907 | 16 | 319 | 3.2 | 4.8 | 0.00 | 0.00 | 0.00 | 52 | 1018.0 |
| 20260506165405 | 15 | 43 | 4.8 | 6.4 | 0.00 | 0.00 | 0.00 | 53 | 1018.2 |
| 20260506164900 | 15 | 12 | 1.6 | 1.6 | 0.00 | 0.00 | 0.00 | 56 | 1018.1 |
| 20260506164357 | 15 | 2 | 4.8 | 6.4 | 0.00 | 0.00 | 0.00 | 54 | 1018.2 |
| 20260506163855 | 15 | 352 | 4.8 | 6.4 | 0.00 | 0.00 | 0.00 | 55 | 1017.9 |
| 20260506163349 | 15 | 53 | 3.2 | 3.2 | 0.00 | 0.00 | 0.00 | 55 | 1018.0 |
| 20260506162845 | 16 | 57 | 1.6 | 1.6 | 0.00 | 0.00 | 0.00 | 56 | 1017.7 |
| 20260506162343 | 16 | 29 | 4.8 | 9.7 | 0.00 | 0.00 | 0.00 | 53 | 1017.8 |
| 20260506161840 | 15 | 0 | 4.8 | 6.4 | 0.00 | 0.00 | 0.00 | 56 | 1017.8 |
| 20260506161337 | 15 | 15 | 6.4 | 9.7 | 0.00 | 0.00 | 0.00 | 56 | 1017.8 |
| 20260506160835 | 15 | 20 | 6.4 | 6.4 | 0.00 | 0.00 | 0.00 | 56 | 1017.8 |
| 20260506160331 | 13 | 16 | 1.6 | 3.2 | 0.00 | 0.00 | 0.00 | 59 | 1017.9 |
| 20260506155831 | 13 | 21 | 3.2 | 3.2 | 0.00 | 0.00 | 0.00 | 59 | 1017.7 |
| 20260506155327 | 13 | 43 | 4.8 | 4.8 | 0.00 | 0.00 | 0.00 | 61 | 1017.7 |
| 20260506153439 | 12 | 39 | 1.6 | 1.6 | 0.00 | 0.00 | 0.00 | 60 | 1017.2 |
| 20260506152936 | 13 | 48 | 3.2 | 3.2 | 0.00 | 0.00 | 0.00 | 59 | 1017.1 |
| 20260506152433 | 13 | 37 | 4.8 | 4.8 | 0.00 | 0.00 | 0.00 | 60 | 1016.9 |
| 20260506151931 | 12 | 17 | 3.2 | 4.8 | 0.00 | 0.00 | 0.00 | 61 | 1016.7 |
| 20260506151428 | 12 | 69 | 6.4 | 6.4 | 0.00 | 0.00 | 0.00 | 61 | 1016.6 |
| 20260506150926 | 12 | 34 | 3.2 | 4.8 | 0.00 | 0.00 | 0.00 | 60 | 1016.4 |
| 20260506150422 | 12 | 14 | 6.4 | 9.7 | 0.00 | 0.00 | 0.00 | 59 | 1016.3 |
| 20260506145919 | 12 | 8 | 3.2 | 6.4 | 0.00 | 0.00 | 0.00 | 60 | 1016.4 |
| 20260506145415 | 12 | 9 | 9.7 | 12.9 | 0.00 | 0.00 | 0.00 | 60 | 1016.3 |
| 20260506144913 | 12 | 15 | 9.7 | 12.9 | 0.00 | 0.00 | 0.00 | 61 | 1016.5 |
| 20260506144409 | 12 | 38 | 6.4 | 9.7 | 0.00 | 0.00 | 0.00 | 62 | 1016.5 |
| 20260506143908 | 12 | 11 | 4.8 | 6.4 | 0.00 | 0.00 | 0.00 | 62 | 1016.3 |
| 20260506143404 | 12 | 15 | 3.2 | 4.8 | 0.00 | 0.00 | 0.00 | 63 | 1016.4 |
| 20260506142902 | 11 | 45 | 4.8 | 6.4 | 0.00 | 0.00 | 0.00 | 64 | 1016.5 |
| 20260506142400 | 11 | 58 | 4.8 | 6.4 | 0.00 | 0.00 | 0.00 | 65 | 1016.4 |
| 20260506141858 | 11 | 12 | 4.8 | 4.8 | 0.00 | 0.00 | 0.00 | 64 | 1016.3 |
| 20260506141356 | 11 | 43 | 4.8 | 4.8 | 0.00 | 0.00 | 0.00 | 67 | 1016.2 |
| 20260506140854 | 11 | 50 | 6.4 | 6.4 | 0.00 | 0.00 | 0.00 | 67 | 1016.3 |
| 20260506140350 | 11 | 33 | 6.4 | 9.7 | 0.00 | 0.00 | 0.00 | 67 | 1016.4 |
| 20260506135847 | 11 | 29 | 6.4 | 6.4 | 0.00 | 0.00 | 0.00 | 68 | 1016.3 |
| 20260506135344 | 10 | 16 | 4.8 | 4.8 | 0.00 | 0.00 | 0.00 | 69 | 1016.4 |
| 20260506134840 | 10 | 0 | 8.0 | 9.7 | 0.00 | 0.00 | 0.00 | 68 | 1016.4 |
| 20260506134337 | 11 | 18 | 6.4 | 9.7 | 0.00 | 0.00 | 0.00 | 69 | 1016.4 |
| 20260506133834 | 11 | 38 | 8.0 | 9.7 | 0.00 | 0.00 | 0.00 | 69 | 1016.7 |
| 20260506133331 | 10 | 47 | 4.8 | 11.3 | 0.00 | 0.00 | 0.00 | 70 | 1016.9 |
| 20260506132827 | 10 | 61 | 6.4 | 11.3 | 0.00 | 0.00 | 0.00 | 69 | 1016.6 |
| 20260506132325 | 10 | 21 | 4.8 | 6.4 | 0.00 | 0.00 | 0.00 | 70 | 1016.8 |
| 20260506131822 | 10 | 34 | 4.8 | 6.4 | 0.00 | 0.00 | 0.00 | 71 | 1016.6 |
| 20260506131318 | 10 | 32 | 4.8 | 6.4 | 0.00 | 0.00 | 0.00 | 73 | 1016.5 |
| 20260506130816 | 10 | 21 | 3.2 | 4.8 | 0.00 | 0.00 | 0.00 | 74 | 1016.5 |
| 20260506130312 | 10 | 40 | 1.6 | 3.2 | 0.00 | 0.00 | 0.00 | 75 | 1016.5 |
| 20260506125810 | 10 | 45 | 1.6 | 3.2 | 0.00 | 0.00 | 0.00 | 76 | 1016.2 |
| 20260506125308 | 10 | 15 | 6.4 | 6.4 | 0.00 | 0.00 | 0.00 | 77 | 1016.3 |